Hourly Weather Kitakyushu

Today, 21 October, Wednesday

Time Temperature Precipitation Wind Pressure Humidity
00:00 +17°C° 0 mm 2 mps 765 mmHg 74%
01:00 +16°C° 0 mm 3 mps 765 mmHg 72%
02:00 +16°C° 0 mm 3 mps 764 mmHg 71%
03:00 +17°C° 0 mm 3 mps 765 mmHg 67%
04:00 +17°C° 0 mm 3 mps 764 mmHg 67%
05:00 +17°C° 0 mm 4 mps 764 mmHg 66%
06:00 +17°C° 0 mm 4 mps 764 mmHg 66%
07:00 +18°C° 0 mm 4 mps 764 mmHg 62%
08:00 +20°C° 0 mm 5 mps 764 mmHg 58%
09:00 +21°C° 0 mm 4 mps 764 mmHg 54%
10:00 +22°C° 0 mm 4 mps 764 mmHg 52%
11:00 +23°C° 0 mm 4 mps 763 mmHg 50%
12:00 +25°C° 0 mm 4 mps 763 mmHg 48%
13:00 +26°C° 0 mm 4 mps 762 mmHg 49%
14:00 +26°C° 0 mm 4 mps 762 mmHg 49%
15:00 +26°C° 0 mm 3 mps 761 mmHg 50%
16:00 +25°C° 0.1 mm 4 mps 761 mmHg 56%
17:00 +23°C° 0.1 mm 4 mps 761 mmHg 61%
18:00 +23°C° 0.1 mm 4 mps 762 mmHg 67%
19:00 +22°C° 0.2 mm 5 mps 761 mmHg 68%
20:00 +22°C° 0.2 mm 6 mps 761 mmHg 70%
21:00 +22°C° 0 mm 7 mps 760 mmHg 73%
22:00 +22°C° 0 mm 7 mps 760 mmHg 74%
23:00 +22°C° 0 mm 7 mps 760 mmHg 75%

Tomorrow, 22 October, Thursday

Time Temperature Precipitation Wind Pressure Humidity
00:00 +22°C° 0 mm 7 mps 759 mmHg 75%
01:00 +21°C° 1 mm 6 mps 759 mmHg 79%
02:00 +21°C° 1 mm 5 mps 758 mmHg 83%
03:00 +21°C° 1 mm 4 mps 758 mmHg 87%
04:00 +21°C° 1.3 mm 5 mps 757 mmHg 87%
05:00 +21°C° 1.3 mm 6 mps 757 mmHg 88%
06:00 +21°C° 1.3 mm 6 mps 756 mmHg 88%
07:00 +21°C° 0.8 mm 5 mps 756 mmHg 88%
08:00 +21°C° 0.8 mm 3 mps 756 mmHg 89%
09:00 +21°C° 0.8 mm 2 mps 756 mmHg 90%
10:00 +21°C° 1.8 mm 2 mps 756 mmHg 91%
11:00 +22°C° 1.8 mm 1 mps 756 mmHg 92%
12:00 +22°C° 1.8 mm 1 mps 755 mmHg 93%
13:00 +20°C° 3.3 mm 2 mps 755 mmHg 93%
14:00 +20°C° 3.3 mm 3 mps 755 mmHg 93%
15:00 +20°C° 3.3 mm 4 mps 754 mmHg 93%
16:00 +20°C° 1 mm 4 mps 755 mmHg 92%
17:00 +20°C° 1 mm 4 mps 755 mmHg 91%
18:00 +19°C° 1 mm 3 mps 755 mmHg 90%
19:00 +19°C° 0.2 mm 3 mps 755 mmHg 87%
20:00 +19°C° 0.2 mm 3 mps 755 mmHg 84%
21:00 +18°C° 0.2 mm 3 mps 755 mmHg 81%
22:00 +18°C° 0.2 mm 3 mps 755 mmHg 81%
23:00 +18°C° 0.2 mm 2 mps 755 mmHg 81%

Day after tomorrow, 23 October, Friday

Time Temperature Precipitation Wind Pressure Humidity
00:00 +18°C° 0.2 mm 2 mps 755 mmHg 82%
01:00 +18°C° 0.1 mm 3 mps 755 mmHg 80%
02:00 +18°C° 0.1 mm 3 mps 755 mmHg 79%
03:00 +18°C° 0.1 mm 4 mps 755 mmHg 77%
04:00 +17°C° 0.1 mm 5 mps 755 mmHg 74%
05:00 +16°C° 0.1 mm 6 mps 755 mmHg 71%
06:00 +15°C° 0.1 mm 7 mps 756 mmHg 68%
07:00 +15°C° 0 mm 7 mps 756 mmHg 65%
08:00 +15°C° 0 mm 7 mps 757 mmHg 61%
09:00 +15°C° 0 mm 7 mps 757 mmHg 57%
10:00 +16°C° 0 mm 7 mps 757 mmHg 53%
11:00 +16°C° 0 mm 7 mps 757 mmHg 49%
12:00 +16°C° 0 mm 7 mps 757 mmHg 45%
13:00 +16°C° 0 mm 7 mps 756 mmHg 44%
14:00 +16°C° 0 mm 7 mps 756 mmHg 44%
15:00 +16°C° 0 mm 6 mps 756 mmHg 44%
16:00 +15°C° 0 mm 6 mps 757 mmHg 45%
17:00 +15°C° 0 mm 5 mps 757 mmHg 46%
18:00 +14°C° 0 mm 4 mps 757 mmHg 47%
19:00 +14°C° 0 mm 4 mps 758 mmHg 46%
20:00 +14°C° 0 mm 3 mps 758 mmHg 46%
21:00 +14°C° 0 mm 3 mps 758 mmHg 45%
22:00 +13°C° 0 mm 3 mps 758 mmHg 47%
23:00 +13°C° 0 mm 3 mps 759 mmHg 48%

24 October, Saturday

Time Temperature Precipitation Wind Pressure Humidity
00:00 +14°C° 0 mm 2 mps 759 mmHg 50%
01:00 +13°C° 0 mm 3 mps 759 mmHg 53%
02:00 +12°C° 0 mm 3 mps 759 mmHg 56%
03:00 +12°C° 0 mm 3 mps 759 mmHg 59%
04:00 +12°C° 0 mm 4 mps 759 mmHg 58%
05:00 +13°C° 0 mm 5 mps 759 mmHg 57%
06:00 +13°C° 0 mm 5 mps 759 mmHg 55%
07:00 +14°C° 0 mm 6 mps 760 mmHg 52%
08:00 +14°C° 0 mm 6 mps 760 mmHg 48%
09:00 +15°C° 0 mm 6 mps 760 mmHg 45%
10:00 +15°C° 0 mm 7 mps 760 mmHg 44%
11:00 +16°C° 0 mm 7 mps 760 mmHg 43%
12:00 +16°C° 0 mm 7 mps 760 mmHg 43%
13:00 +16°C° 0 mm 7 mps 760 mmHg 44%
14:00 +16°C° 0 mm 7 mps 759 mmHg 45%
15:00 +16°C° 0 mm 7 mps 759 mmHg 46%
16:00 +16°C° 0 mm 6 mps 759 mmHg 46%
17:00 +15°C° 0 mm 5 mps 760 mmHg 46%
18:00 +14°C° 0 mm 5 mps 760 mmHg 47%
19:00 +14°C° 0 mm 4 mps 760 mmHg 47%
20:00 +14°C° 0 mm 4 mps 761 mmHg 47%
21:00 +14°C° 0 mm 4 mps 761 mmHg 47%
22:00 +14°C° 0 mm 4 mps 761 mmHg 47%
23:00 +14°C° 0 mm 4 mps 761 mmHg 47%

25 October, Sunday

Time Temperature Precipitation Wind Pressure Humidity
00:00 +14°C° 0 mm 4 mps 761 mmHg 47%
01:00 +13°C° 0 mm 4 mps 761 mmHg 49%
02:00 +13°C° 0 mm 4 mps 761 mmHg 50%
03:00 +13°C° 0 mm 4 mps 761 mmHg 52%
04:00 +13°C° 0 mm 4 mps 761 mmHg 52%
05:00 +13°C° 0 mm 4 mps 761 mmHg 52%
06:00 +13°C° 0 mm 4 mps 761 mmHg 53%
07:00 +14°C° 0 mm 4 mps 762 mmHg 50%
08:00 +15°C° 0 mm 4 mps 762 mmHg 48%
09:00 +18°C° 0 mm 4 mps 762 mmHg 45%
10:00 +18°C° 0 mm 4 mps 762 mmHg 43%
11:00 +19°C° 0 mm 5 mps 762 mmHg 41%
12:00 +20°C° 0 mm 5 mps 761 mmHg 39%
13:00 +20°C° 0 mm 5 mps 761 mmHg 40%
14:00 +20°C° 0 mm 5 mps 761 mmHg 41%
15:00 +20°C° 0 mm 5 mps 760 mmHg 41%
16:00 +19°C° 0 mm 5 mps 761 mmHg 44%
17:00 +18°C° 0 mm 4 mps 761 mmHg 46%
18:00 +17°C° 0 mm 4 mps 761 mmHg 49%
19:00 +16°C° 0 mm 3 mps 761 mmHg 50%
20:00 +16°C° 0 mm 2 mps 761 mmHg 52%
21:00 +16°C° 0 mm 2 mps 762 mmHg 53%
22:00 +15°C° 0 mm 1 mps 762 mmHg 54%
23:00 +15°C° 0 mm 1 mps 762 mmHg 55%

26 October, Monday

Time Temperature Precipitation Wind Pressure Humidity
00:00 +15°C° 0 mm 1 mps 761 mmHg 56%
01:00 +14°C° 0 mm 1 mps 761 mmHg 57%
02:00 +14°C° 0 mm 1 mps 761 mmHg 58%
03:00 +14°C° 0 mm 1 mps 761 mmHg 59%
04:00 +14°C° 0 mm 1 mps 761 mmHg 60%
05:00 +14°C° 0 mm 1 mps 762 mmHg 61%
06:00 +13°C° 0 mm 1 mps 762 mmHg 62%
07:00 +15°C° 0 mm 1 mps 762 mmHg 59%
08:00 +18°C° 0 mm 1 mps 762 mmHg 55%
09:00 +19°C° 0 mm 1 mps 762 mmHg 51%
10:00 +20°C° 0 mm 1 mps 762 mmHg 48%
11:00 +21°C° 0 mm 1 mps 761 mmHg 45%
12:00 +22°C° 0 mm 1 mps 761 mmHg 42%
13:00 +21°C° 0 mm 2 mps 761 mmHg 43%
14:00 +21°C° 0 mm 2 mps 761 mmHg 44%
15:00 +21°C° 0 mm 3 mps 760 mmHg 45%
16:00 +20°C° 0 mm 3 mps 761 mmHg 50%
17:00 +18°C° 0 mm 3 mps 761 mmHg 55%
18:00 +17°C° 0 mm 3 mps 761 mmHg 60%
19:00 +17°C° 0 mm 2 mps 761 mmHg 62%
20:00 +16°C° 0 mm 2 mps 761 mmHg 64%
21:00 +16°C° 0 mm 1 mps 762 mmHg 66%
22:00 +15°C° 0 mm 1 mps 762 mmHg 66%
23:00 +15°C° 0 mm 1 mps 761 mmHg 67%

27 October, Tuesday

Time Temperature Precipitation Wind Pressure Humidity
00:00 +15°C° 0 mm 1 mps 761 mmHg 67%
01:00 +15°C° 0 mm 1 mps 761 mmHg 68%
02:00 +14°C° 0 mm 1 mps 761 mmHg 69%
03:00 +14°C° 0 mm 1 mps 761 mmHg 70%
04:00 +14°C° 0 mm 1 mps 762 mmHg 70%
05:00 +14°C° 0 mm 1 mps 762 mmHg 71%
06:00 +14°C° 0 mm 1 mps 762 mmHg 71%
07:00 +15°C° 0 mm 1 mps 762 mmHg 66%
08:00 +18°C° 0 mm 1 mps 762 mmHg 61%
09:00 +20°C° 0 mm 1 mps 762 mmHg 56%
10:00 +20°C° 0 mm 1 mps 762 mmHg 52%
11:00 +20°C° 0 mm 2 mps 762 mmHg 47%
12:00 +21°C° 0 mm 2 mps 762 mmHg 43%
13:00 +21°C° 0 mm 2 mps 762 mmHg 42%
14:00 +21°C° 0 mm 3 mps 761 mmHg 42%
15:00 +21°C° 0 mm 3 mps 761 mmHg 42%
16:00 +20°C° 0 mm 3 mps 761 mmHg 46%
17:00 +19°C° 0 mm 3 mps 762 mmHg 50%
18:00 +18°C° 0 mm 2 mps 762 mmHg 54%
19:00 +17°C° 0 mm 2 mps 762 mmHg 55%
20:00 +18°C° 0 mm 1 mps 762 mmHg 57%
21:00 +16°C° 0 mm 1 mps 762 mmHg 59%
22:00 +16°C° 0 mm 1 mps 762 mmHg 60%
23:00 +15°C° 0 mm 0 mps 762 mmHg 61%
Show more